Wetterdaten: aktuell Donnerstag, 30.05.2024 14:10
Datum Zeit Temp 2m Wasser SB Wasser NSB Temp 2m ob Temp 10cm Regen Wind mittel Richtung Richtung Taupunkt Windben
30.05.2024 14:10 16,7 C 21,3 C 20,0 C 17,9 C 15,1 C 0,0 l/m 4,5 km/h S-SW 202 14,0 C 0,0 km/h
30.05.2024 14:05 16,8 C 21,3 C 19,9 C 17,9 C 15,0 C 0,0 l/m 3,7 km/h S-SO 157 14,3 C 8,0 km/h
30.05.2024 14:00 16,7 C 21,2 C 19,9 C 17,9 C 15,0 C 0,0 l/m 3,7 km/h O 90 14,2 C 3,2 km/h
30.05.2024 13:55 16,8 C 21,3 C 19,9 C 17,9 C 15,0 C 0,0 l/m 4,2 km/h S-SW 202 14,3 C 1,9 km/h
30.05.2024 13:50 16,8 C 21,3 C 19,9 C 17,9 C 15,0 C 0,0 l/m 3,9 km/h O-SO 112 14,4 C 5,0 km/h
30.05.2024 13:45 16,7 C 21,2 C 19,9 C 17,6 C 15,0 C 0,0 l/m 3,4 km/h O-SO 112 14,3 C 3,1 km/h
30.05.2024 13:40 16,6 C 21,2 C 19,9 C 17,5 C 15,0 C 0,0 l/m 4,3 km/h SO 135 14,2 C 8,4 km/h
30.05.2024 13:35 16,6 C 21,2 C 19,8 C 17,3 C 14,9 C 0,0 l/m 3,1 km/h O-SO 112 14,4 C 2,1 km/h
30.05.2024 13:30 16,4 C 21,2 C 19,8 C 17,1 C 14,8 C 0,0 l/m 2,3 km/h NW 315 14,2 C 4,5 km/h
30.05.2024 13:25 16,2 C 21,2 C 19,8 C 16,9 C 14,6 C 0,0 l/m 1,8 km/h S-SO 157 14,0 C 2,1 km/h
30.05.2024 13:20 16,0 C 21,2 C 19,8 C 16,6 C 14,4 C 0,0 l/m 1,8 km/h S 180 13,8 C 2,7 km/h
30.05.2024 13:15 15,8 C 21,2 C 19,8 C 16,2 C 14,2 C 0,0 l/m 1,3 km/h SO 135 13,8 C 2,7 km/h
30.05.2024 13:10 15,6 C 21,1 C 19,7 C 16,1 C 14,0 C 0,0 l/m 1,4 km/h W-SW 247 13,6 C 0,0 km/h
30.05.2024 13:05 15,4 C 21,1 C 19,7 C 15,9 C 13,8 C 0,0 l/m 1,1 km/h W-SW 247 13,2 C 0,0 km/h
30.05.2024 13:00 15,3 C 21,1 C 19,7 C 15,7 C 13,6 C 0,0 l/m 2,3 km/h W-SW 247 13,1 C 3,1 km/h
30.05.2024 12:55 15,2 C 21,1 C 19,7 C 15,7 C 13,5 C 0,0 l/m 3,1 km/h S 180 13,0 C 2,1 km/h
30.05.2024 12:50 15,3 C 21,1 C 19,7 C 15,6 C 13,5 C 0,0 l/m 3,4 km/h S 180 13,1 C 8,5 km/h
30.05.2024 12:45 15,1 C 21,1 C 19,7 C 15,6 C 13,4 C 0,0 l/m 4,7 km/h O-SO 112 13,0 C 4,3 km/h
30.05.2024 12:40 15,1 C 21,1 C 19,7 C 15,5 C 13,4 C 0,0 l/m 4,5 km/h O-SO 112 13,0 C 12,4 km/h
30.05.2024 12:35 15,1 C 21,1 C 19,6 C 15,6 C 13,3 C 0,0 l/m 4,5 km/h SO 135 13,0 C 6,4 km/h
30.05.2024 12:30 15,1 C 21,1 C 19,6 C 15,8 C 13,4 C 0,0 l/m 4,8 km/h O-SO 112 13,0 C 6,6 km/h
30.05.2024 12:25 15,4 C 21,1 C 19,6 C 15,9 C 13,8 C 0,0 l/m 5,3 km/h O 90 13,2 C 5,1 km/h
30.05.2024 12:20 15,5 C 21,1 C 19,6 C 15,8 C 13,9 C 0,0 l/m 4,2 km/h S-SO 157 13,3 C 13,5 km/h
30.05.2024 12:15 15,5 C 21,2 C 19,6 C 15,9 C 13,9 C 0,0 l/m 2,9 km/h O 90 13,3 C 3,7 km/h
30.05.2024 12:10 15,4 C 21,1 C 19,6 C 15,9 C 13,9 C 0,0 l/m 2,7 km/h O-SO 112 13,2 C 3,5 km/h
30.05.2024 12:05 15,5 C 21,1 C 19,6 C 15,9 C 14,1 C 0,0 l/m 1,3 km/h O-SO 112 13,3 C 4,3 km/h
_ Min-Zeit 05:20 11:10 06:35 06:05 05:15 - 03:20 - - 05:20 15:45
Minimum _ 12,5 C 21,0 C 19,4 C 12,2 C 12,1 C - 0,0 km/h - - 10,4 C 0,0 km/h
_ Max-Zeit 15:15 15:05 18:40 15:10 15:10 04:35 12:25 - - 13:50 12:20
Maximum _ 17,6 C 21,8 C 20,4 C 18,1 C 16,8 C 0,7 l/m 5,3 km/h
O
- - 14,4 C 13,5 km/h
S-SO
Durchschnitt _ 14,9 C 21,4 C 19,8 C 15,2 C 14,2 C #4,1 l/m 1,7 km/h O-SO - 12,0 C 3,1 km/h